Tracking 35275 objects as of 9-Sep-2026
HD Live streaming from Space Station
objects crossing your sky now

ASBM-2

Track ASBM-2 now!


NORAD ID: 60423
Int'l Code: 2024-143B
Launch date: August 12, 2024
Source: Norway (NOR)
Launch site: AIR FORCE WESTERN TEST RANGE (AFWTR)
Your satellite tracking list
Your tracking list is empty




NASA's NSSDC Master Catalog

Two Line Element Set (TLE):
1 60423U 24143B   26251.26169309 -.00000040  00000-0  00000-0 0  9996
2 60423  62.9077  42.3116 5627340 269.4333  29.5032  1.50425200 12858
Source of the keplerian elements: AFSPC